Location: Newark
(48.8656°N, 2.3211°E)
Time: 22:43:51
(UTC+00:00)

Envisat - Pass Details

Date: 12 December 2019
Orbit: 764 x 766 km, 98.1° (Epoch: 21 January)

Event Time Altitude Azimuth Distance (km) Brightness Sun altitude
Rises 18:02:04 0° 177° (S) 3,221 6.4 -20.0°
Reaches altitude 10° 18:04:25 10° 182° (S) 2,299 5.6 -20.4°
Maximum altitude 18:09:23 55° 260° (W) 922 3.7 -21.2°
Drops below altitude 10° 18:14:24 10° 338° (NNW) 2,316 5.6 -22.0°
Sets 18:16:46 0° 343° (NNW) 3,247 6.3 -22.4°
